SCP
0 1 1 1 1 0 0 0 0 0 0 0 0 0 0 0 0 0 0 0 0 0 1 1 0 0 1 1 1 1 1 1 1 1 1 1 1 1 1 1 1 1 1
1 1 1 1 1 0 0 0 0 0 0 0 0 0 0 0 0 0 0 0 0 0 0 1 0 0 0 1 1 1 1 1 1 1 1 1 1 1 1 1 1 1 1
1 1 0 0 0 0 0 0 0 0 0 0 0 0 0 0 0 0 0 0 0 0 0 1 1 0 0 0 1 1 1 1 1 1 1 1 1 1 1 1 1 1 1
1 0 0 0 0 0 0 0 0 0 0 0 0 0 0 0 0 0 0 0 0 0 0 0 1 0 0 0 0 1 1 1 1 1 1 1 1 1 1 1 1 1 1
0 0 0 0 0 0 0 0 0 0 0 0 0 0 0 0 0 0 0 0 0 0 0 0 0 0 0 0 0 1 1 1 1 1 1 0 1 1 1 1 0 1 1
0 0 0 0 0 0 0 0 0 0 0 0 0 0 0 0 0 0 0 0 0 0 0 0 0 0 0 0 0 0 0 0 0 0 0 0 0 0 0 0 0 0 0
0 0 0 0 0 0 0 0 0 0 0 0 0 0 0 0 0 0 0 0 0 0 0 0 0 0 0 0 0 0 0 0 0 0 0 1 1 1 1 1 0 0 0
0 0 0 0 0 0 0 0 0 0 0 0 0 0 0 0 0 0 0 0 0 0 0 0 0 0 0 0 0 0 0 0 0 0 1 1 1 1 1 1 1 1 0
0 0 0 0 0 0 0 0 0 0 0 0 0 0 0 0 0 0 0 0 0 0 0 0 0 0 0 0 0 0 0 0 0 0 0 1 1 1 1 1 1 1 1
0 0 0 0 0 0 0 0 0 0 0 0 0 0 0 0 0 0 0 0 0 0 0 0 0 0 0 0 0 0 0 0 0 0 0 0 0 1 1 1 1 1 1
0 0 0 0 0 0 0 0 0 0 0 0 0 0 0 0 0 0 0 0 0 0 0 0 0 0 0 0 0 0 0 0 0 0 0 0 0 0 1 1 0 1 1
0 0 0 0 0 0 0 0 0 0 0 0 0 0 0 0 0 0 0 0 0 0 0 0 0 0 0 0 0 0 0 0 0 0 0 0 0 0 0 0 0 0 0
0 0 0 0 0 0 0 0 0 0 0 0 0 0 0 0 0 0 0 0 0 0 0 0 0 0 0 0 0 0 0 0 0 0 0 0 0 0 0 0 0 0 0
0 0 0 0 0 0 0 0 0 0 0 0 0 0 0 0 0 0 0 0 0 0 0 0 0 0 0 0 0 0 0 0 0 0 0 0 0 0 0 0 0 0 0
0 0 0 0 0 0 0 0 0 0 0 0 0 0 0 0 0 0 0 0 0 0 0 0 0 0 0 0 0 0 0 0 0 0 0 0 0 0 0 0 0 0 0
0 0 0 0 0 0 0 0 0 0 0 0 0 0 0 0 0 0 0 0 0 0 0 0 0 0 0 0 0 0 0 0 0 0 0 0 0 0 0 0 0 0 0
0 0 0 0 0 0 0 0 0 0 0 0 0 0 0 0 0 0 0 0 0 0 0 0 0 0 0 0 0 0 0 0 0 0 0 0 0 0 0 0 0 0 0
0 0 0 0 0 0 0 0 0 0 0 0 0 0 0 0 0 0 0 0 0 0 0 0 0 0 0 0 0 0 0 0 0 0 0 0 0 0 0 0 0 0 0
0 0 0 0 0 0 0 0 0 0 0 0 0 0 0 0 0 0 0 0 0 0 0 0 0 0 0 0 0 0 0 0 0 0 0 0 0 0 0 0 0 0 0
0 0 0 0 0 0 0 0 0 0 0 0 0 0 0 0 0 0 0 0 0 0 0 0 0 0 0 0 0 0 0 0 0 0 0 0 0 0 0 0 0 0 0
0 0 0 0 0 0 0 0 0 0 0 0 0 0 0 0 0 0 0 0 0 0 0 0 0 0 0 0 0 0 0 0 0 0 0 0 0 0 0 0 0 0 0
0 0 0 0 0 0 0 0 0 0 0 0 0 0 0 0 0 0 0 0 0 0 0 0 0 0 0 0 0 0 0 0 0 0 0 0 0 0 0 0 0 0 0
0 0 0 0 0 0 0 0 0 0 0 0 0 0 0 0 0 0 0 0 0 0 0 0 0 0 0 0 0 0 0 0 0 0 0 0 0 0 0 0 0 0 0
0 0 0 0 0 0 0 0 0 0 0 0 0 0 0 0 0 0 0 0 0 0 0 0 0 0 0 0 0 0 0 0 0 0 0 0 0 0 0 0 0 0 0
0 0 0 0 0 0 0 0 0 0 0 0 0 0 0 0 0 0 0 0 0 0 0 0 0 0 0 0 0 0 0 0 0 0 0 0 0 0 0 0 0 0 0
0 0 0 0 0 0 0 0 0 0 0 0 0 0 0 0 0 0 0 0 0 0 0 0 0 0 0 0 0 0 0 0 0 0 0 0 0 0 0 0 0 0 0
Wind_Speed
2 1 1 1 1 1 1 1 1 1 1 1 2 2 1 1 1 1 1 2 2 2 2 2 2 2 2 2 2 2 1 2 2 3 3 4 4 5 5 6 6 6 6
2 2 1 1 1 1 1 1 1 1 0 1 1 1 1 1 1 1 0 1 2 3 3 2 1 1 2 2 2 2 2 2 2 3 3 4 4 5 5 5 6 6 7
2 2 1 1 1 1 1 1 1 1 1 1 1 1 1 1 1 1 1 1 1 2 4 3 2 2 3 3 3 3 3 3 3 3 3 4 4 5 5 5 6 6 6
2 2 1 1 1 1 1 1 1 1 1 1 1 0 0 0 0 1 1 1 1 1 2 4 4 4 4 4 4 3 3 3 3 4 4 4 5 6 6 6 6 7 7
2 2 1 1 1 1 1 1 1 1 1 1 0 0 0 0 0 1 1 1 1 1 1 2 4 4 4 5 5 4 4 4 4 4 4 5 5 6 6 6 6 6 7
2 2 2 1 1 2 1 1 1 1 1 0 0 1 1 0 0 1 1 1 1 1 1 2 2 2 4 5 5 5 5 6 5 6 6 6 6 7 7 7 7 7 8
2 2 2 2 2 2 2 1 1 1 1 1 2 2 2 1 1 1 1 1 1 1 1 1 1 1 2 4 5 5 6 6 7 7 7 7 7 8 8 8 8 8 8
3 2 3 2 2 2 2 2 2 1 1 1 2 1 1 2 2 1 0 0 1 1 1 1 1 1 1 1 3 5 6 6 7 7 7 8 8 8 8 9 8 8 8
3 3 3 2 2 2 2 1 1 2 1 0 1 2 2 2 2 2 1 0 1 1 1 1 0 1 0 1 2 3 5 6 7 8 8 9 9 9 9 9 8 7 7
2 2 2 2 2 2 2 1 1 1 2 1 0 1 1 2 1 2 2 1 1 1 1 1 1 1 1 1 2 3 5 5 7 8 9 9 9 10 10 9 9 8 7
1 1 2 2 2 1 1 1 1 1 1 2 1 0 0 0 1 1 2 2 2 2 2 2 2 2 2 1 2 3 4 6 7 8 9 9 10 10 10 9 9 8 7
0 0 1 1 2 1 1 1 1 2 2 2 1 1 1 1 1 1 2 3 3 3 2 2 2 2 2 2 2 4 5 6 7 8 9 9 10 10 10 10 9 8 7
1 1 1 1 1 1 2 2 2 1 2 2 2 1 1 1 1 1 1 2 3 3 2 2 2 2 2 1 2 3 5 6 7 8 9 9 9 9 10 10 10 9 8
2 2 1 1 1 1 1 1 1 1 1 2 2 2 1 1 1 1 2 1 2 3 2 3 2 2 1 1 3 3 3 6 7 8 9 9 8 9 9 9 9 9 9
1 1 1 1 1 1 1 1 1 1 1 2 2 2 1 1 1 1 1 2 2 3 4 3 2 2 2 2 3 2 3 6 8 8 8 8 8 8 8 9 9 9 8
2 2 1 1 1 1 1 1 1 1 1 2 2 2 2 1 1 1 1 1 2 3 4 2 2 2 3 3 4 2 3 7 7 8 8 7 7 8 8 8 8 8 8
2 2 2 2 2 2 2 2 2 2 2 2 2 3 3 2 1 1 1 1 2 2 4 4 2 2 2 3 3 3 3 3 4 8 9 8 8 8 8 8 8 8 8
3 3 2 2 3 3 3 3 3 3 3 3 3 3 3 2 2 2 2 2 2 2 3 5 4 2 3 3 3 4 3 3 3 7 9 9 8 8 8 8 9 9 8
3 3 3 3 3 3 3 3 4 4 4 4 4 4 3 3 3 2 2 2 2 2 2 3 4 2 2 2 3 3 4 3 4 5 8 8 8 9 9 9 9 9 8
3 3 3 4 4 4 4 4 4 4 4 4 4 4 4 4 4 4 3 3 3 3 2 3 4 3 3 2 1 2 4 3 3 3 5 6 8 9 9 9 9 8 8
4 4 3 4 3 3 4 4 4 4 4 4 4 4 5 6 7 5 4 4 3 3 3 3 4 3 3 2 2 2 4 4 4 2 3 3 4 4 5 8 8 8 8
3 3 4 4 4 4 6 8 6 4 4 5 5 4 5 6 7 8 8 7 6 5 4 4 4 4 5 4 3 3 3 3 4 2 2 4 2 4 4 4 7 9 9
3 4 4 4 5 6 8 9 9 5 5 5 5 5 4 5 6 4 7 8 8 9 8 5 5 6 5 4 3 4 4 4 5 3 2 5 3 4 4 5 9 9 9
4 4 5 5 5 7 9 9 9 6 5 5 6 6 6 6 5 5 5 5 6 6 7 5 6 6 5 4 4 5 5 4 4 3 2 4 3 4 4 4 8 9 8
4 4 4 5 6 7 9 10 8 4 4 6 6 6 6 6 9 9 6 6 6 6 7 9 9 8 9 9 6 2 2 2 4 3 2 3 3 3 4 4 5 8 8
5 4 5 5 6 6 9 10 9 3 5 5 4 5 9 9 10 10 6 6 7 6 4 4 5 6 6 6 7 4 4 3 3 4 2 2 2 2 4 3 3 3 4
Wind_Direction
115 115 127 133 126 115 117 95 63 40 25 18 24 42 43 42 55 47 5 40 33 17 351 315 284 284 282 288 292 277 275 291 299 310 309 304 297 293 291 289 283 280 280
128 133 138 142 142 136 133 136 130 121 76 57 36 34 47 51 68 62 39 25 31 27 16 353 334 327 320 316 315 321 309 315 321 320 316 310 306 303 300 296 290 286 285
127 132 149 150 157 131 106 94 61 74 69 51 37 24 50 39 42 45 43 36 19 29 34 29 19 7 354 344 337 331 329 330 329 327 321 315 311 305 297 295 298 296 291
120 132 147 164 151 114 99 107 89 65 55 46 18 330 27 45 44 64 65 61 49 31 23 34 31 21 9 357 347 345 345 343 336 327 316 313 313 310 304 300 298 294 297
116 124 129 148 133 111 94 106 92 99 72 17 326 288 35 11 136 82 66 59 58 52 32 27 25 23 15 2 354 356 358 352 344 335 324 313 307 307 304 302 302 300 296
120 119 108 91 109 111 95 93 94 75 119 75 25 29 4 345 64 79 80 64 59 60 49 42 24 13 20 12 5 358 352 348 342 337 330 316 305 301 300 300 296 296 293
133 123 118 104 100 118 127 110 100 82 45 62 64 21 359 10 46 68 60 60 35 31 47 40 33 19 0 8 3 356 345 337 332 330 330 325 310 300 298 296 296 297 299
143 128 121 126 109 108 97 81 85 95 46 63 99 92 359 336 343 352 352 48 13 12 22 21 26 16 358 348 339 346 341 332 327 327 329 329 325 314 307 302 299 298 297
136 128 137 138 122 122 128 130 132 126 139 12 90 131 146 233 299 310 299 310 335 346 311 289 312 298 294 306 309 329 335 329 324 326 329 329 328 322 315 312 309 306 303
127 134 138 140 134 131 137 151 140 141 143 150 360 51 146 160 173 299 304 301 297 282 277 287 272 270 261 272 303 328 332 327 322 322 322 323 325 324 321 322 321 317 311
115 131 137 141 138 135 147 135 128 136 141 159 160 123 51 41 156 181 279 303 305 273 263 251 242 248 250 256 266 304 321 318 316 316 317 318 320 322 323 325 322 321 321
43 107 144 144 141 146 163 163 158 157 164 162 156 154 161 179 199 187 246 283 289 284 279 260 245 243 243 248 270 302 309 310 311 313 313 315 318 321 322 323 323 321 319
230 230 173 166 155 170 174 160 158 179 182 177 180 187 190 205 191 189 218 266 284 288 288 282 259 256 261 258 275 300 303 307 309 310 310 314 320 322 323 319 319 318 317
209 205 186 183 180 171 167 159 167 190 187 191 196 193 200 226 201 194 192 199 284 290 280 273 283 265 281 277 280 293 288 303 305 306 307 310 316 319 319 318 317 315 312
204 192 187 193 205 185 174 159 187 210 197 205 208 204 206 224 220 224 207 189 200 262 275 265 274 285 297 278 285 286 283 294 302 306 307 307 312 315 315 315 314 314 312
191 184 203 210 219 217 198 177 193 207 198 220 212 213 219 221 226 228 223 222 210 222 257 270 262 276 287 291 293 292 286 302 305 307 308 306 306 307 308 308 307 308 308
196 199 211 216 222 224 216 204 218 211 209 230 228 217 229 224 223 231 224 220 225 216 253 277 268 281 281 286 299 294 285 284 289 302 304 305 303 301 299 300 302 302 302
209 208 210 216 224 227 222 216 228 224 219 228 233 227 233 232 232 230 220 230 234 228 238 270 282 278 265 269 280 286 291 286 277 292 295 297 296 296 295 296 298 296 295
213 212 208 219 227 228 227 224 225 229 229 232 229 229 237 233 245 244 233 234 241 248 235 252 272 275 271 273 285 290 288 286 286 286 287 288 291 294 293 294 296 296 294
213 219 222 226 228 230 230 229 227 231 236 239 235 233 234 228 235 236 236 234 236 246 245 253 265 273 273 280 281 285 296 290 287 290 288 287 289 292 290 289 289 290 287
223 222 225 232 232 231 231 227 227 229 233 242 245 240 237 234 235 235 238 230 223 232 241 250 262 273 272 276 269 266 281 294 284 269 288 286 287 284 284 285 282 280 280
232 225 226 230 236 244 248 244 235 231 233 238 248 251 249 241 241 247 253 248 230 227 233 238 254 259 265 262 260 260 276 299 293 271 283 284 272 273 273 267 275 279 280
231 236 236 234 240 247 254 255 246 236 232 236 240 247 255 250 248 241 253 256 249 245 238 230 243 250 256 252 254 261 252 255 262 273 290 282 273 270 274 276 280 279 278
230 234 238 238 244 252 254 257 254 239 233 236 235 236 243 250 241 235 236 245 247 246 241 233 234 243 247 247 239 248 253 263 272 262 221 269 282 276 287 285 284 280 278
238 237 237 235 241 255 255 257 250 231 237 244 243 239 239 243 248 245 238 244 254 257 254 245 244 252 259 262 256 248 249 266 280 273 215 239 275 294 292 283 287 290 286
239 242 247 240 239 250 257 256 247 226 237 248 249 247 247 248 251 245 234 234 250 256 251 257 254 258 257 256 250 234 227 242 262 271 228 220 261 308 302 288 292 299 294